Date/Time (UTC),ProbHail,ProbWind,ProbTor,MESH,VIL Density,Flash Rate,Max Flash Density,LJA sigma-level,Max 0-2km AzShear,LLAZ 98th%,MLAZ 98th%,MUCAPE,MLCAPE,CAPE -10C to -30C,MLCIN,SRH 0-1km AGL,EBShear,MeanWind 0-1km AGL,Norm. Sat. Growth Rate,PWAT,WBZ,AvgBeamHgt,size
2019/07/19 01:20,1,1,0,0.07,0.8,0,0.0,0.0,1,1,4,323,107,0,11,3,38.4,13.9,0,1.0,9.0,2.7,51
2019/07/19 01:22,1,1,0,0.07,0.8,0,0.0,0.0,2,2,4,323,107,0,11,3,38.3,13.9,0,1.0,9.0,2.7,50
2019/07/19 01:24,1,1,0,0.07,0.8,0,0.0,0.0,2,2,2,311,107,1,12,3,37.2,13.8,0,1.0,9.0,2.5,49
2019/07/19 01:26,1,1,0,0.07,0.8,0,0.0,0.0,2,2,6,295,106,1,14,4,35.7,13.7,0,1.0,9.0,2.4,77
2019/07/19 01:28,1,1,0,0.07,0.9,0,0.0,0.0,2,1,6,288,105,1,15,4,35.3,13.6,0,1.0,9.1,2.3,73
2019/07/19 01:30,1,1,0,0.06,0.9,0,0.0,0.0,2,1,7,269,104,1,16,4,33.9,13.5,0,1.0,9.1,2.1,71
2019/07/19 01:32,1,1,0,0.08,0.9,0,0.0,0.0,2,2,7,215,98,0,13,1,30.9,12.7,0,1.0,9.2,2.1,75
2019/07/19 01:34,1,1,0,0.08,0.9,0,0.0,0.0,2,2,7,208,95,0,14,1,30.6,12.6,0,1.0,9.2,2.0,86
2019/07/19 01:36,1,1,0,0.08,0.9,0,0.0,0.0,2,2,7,202,92,0,14,2,30.6,12.4,0,1.0,9.2,1.7,129
2019/07/19 01:38,1,1,0,0.08,0.6,0,0.0,0.0,2,2,6,202,92,0,14,2,30.6,12.4,0,1.0,9.2,1.7,129
2019/07/19 01:40,1,1,0,0.06,0.6,0,0.0,0.0,4,2,6,202,91,0,14,2,30.6,12.4,0,1.0,9.2,1.7,134
2019/07/19 01:42,1,1,0,0.07,0.6,0,0.0,0.0,4,2,4,196,86,0,16,3,30.5,12.1,0,1.0,9.3,1.5,135
2019/07/19 01:44,1,1,0,0.07,0.6,0,0.0,0.0,3,3,5,194,83,0,17,3,30.3,11.8,0,1.0,9.3,1.3,54
2019/07/19 01:46,1,1,0,0.07,0.6,0,0.0,0.0,3,3,4,194,82,0,17,4,30.3,11.8,0,1.0,9.3,1.2,53
2019/07/19 01:48,1,1,0,0.04,0.6,0,0.0,0.0,3,3,5,194,81,0,20,4,29.3,11.6,0,1.0,9.4,1.1,48
2019/07/19 01:50,0,1,0,0.04,0.7,0,0.0,0.0,3,3,4,194,79,0,22,4,28.6,11.2,0,1.0,9.4,1.0,51
2019/07/19 01:52,0,1,0,0.04,0.8,0,0.0,0.0,3,3,4,194,76,0,25,4,27.4,10.8,0,1.0,9.5,0.9,151
2019/07/19 01:54,0,1,0,0.0,0.8,0,0.0,0.0,3,3,4,200,75,0,28,9,24.4,8.8,0,1.0,9.5,0.8,205
2019/07/19 01:56,0,1,0,0.08,0.8,0,0.0,0.0,3,2,5,200,76,0,29,8,24.7,8.6,1.7,1.0,9.5,0.7,247
2019/07/19 01:58,0,1,0,0.08,0.6,0,0.0,0.0,3,2,4,203,77,0,30,8,24.9,8.5,1.7,1.0,9.5,0.7,204
2019/07/19 02:00,0,1,0,0.08,0.7,0,0.0,0.0,2,2,4,208,79,0,31,7,25.6,8.4,1.7,1.0,9.5,0.6,270
2019/07/19 02:02,0,1,0,0.08,0.7,0,0.0,0.0,3,2,4,208,79,0,31,7,25.6,8.4,1.7,1.0,9.5,0.5,252
2019/07/19 02:04,0,1,0,0.06,0.8,0,0.0,0.0,3,2,4,212,83,0,32,6,26.2,8.0,1.7,1.0,9.5,0.5,231
2019/07/19 02:06,0,1,0,0.07,0.9,0,0.0,0.0,3,2,4,215,84,0,33,6,26.8,7.9,1.7,1.0,9.6,0.4,249
2019/07/19 02:08,0,1,0,0.07,1.0,0,0.0,0.0,3,2,4,217,85,0,33,5,27.1,7.7,1.7,1.0,9.6,0.4,229
2019/07/19 02:10,0,1,0,0.07,1.0,0,0.0,0.0,3,2,3,222,88,0,34,4,28.7,7.3,1.7,1.0,9.5,0.5,289
2019/07/19 02:12,0,1,0,0.07,1.0,0,0.0,0.0,3,2,3,222,88,0,34,4,28.7,7.3,1.7,1.0,9.5,0.5,289
2019/07/19 02:14,1,1,0,0.04,1.0,0,0.0,0.0,2,2,3,227,89,0,34,3,30.1,7.3,1.7,1.0,9.5,0.5,257
2019/07/19 02:16,1,1,0,0.0,1.0,0,0.0,0.0,2,2,3,235,90,0,34,2,32.3,7.2,1.7,1.0,9.5,0.6,314
2019/07/19 02:18,1,1,0,0.0,1.0,0,0.0,0.0,3,2,3,237,90,0,35,1,32.5,7.3,1.7,1.0,9.5,0.6,286
2019/07/19 02:20,1,1,0,0.0,1.0,0,0.0,0.0,2,2,3,244,90,0,35,1,34.1,7.2,1.7,1.0,9.5,0.7,300
2019/07/19 02:22,1,1,0,0.0,0.7,0,0.0,0.0,2,2,3,246,91,0,35,1,35.0,7.1,1.7,1.0,9.5,0.7,302
2019/07/19 02:24,1,1,0,0.0,0.7,0,0.0,0.0,2,2,3,249,91,0,35,1,35.9,7.0,1.7,1.0,9.5,0.8,277
2019/07/19 02:26,1,1,0,0.0,0.7,0,0.0,0.0,2,2,2,247,91,0,36,0,35.9,7.1,1.7,1.0,9.5,0.9,344
2019/07/19 02:28,1,1,0,0.0,0.8,0,0.0,0.0,4,2,2,247,91,0,36,0,35.9,7.1,1.7,1.0,9.5,0.9,335
2019/07/19 02:30,1,1,0,0.0,1.0,0,0.0,0.0,4,2,2,244,91,0,36,0,35.8,7.2,1.7,1.0,9.5,1.0,289
2019/07/19 02:32,1,1,0,0.08,1.0,0,0.0,0.0,4,2,3,240,90,0,36,1,35.9,7.1,1.7,1.0,9.5,1.2,346
2019/07/19 02:34,1,1,0,0.08,1.0,0,0.0,0.0,3,1,3,237,90,0,37,1,35.7,7.2,1.7,1.0,9.5,1.2,312
2019/07/19 02:36,1,1,0,0.08,1.0,0,0.0,0.0,2,2,3,228,90,0,36,1,36.3,7.0,1.7,1.0,9.5,1.4,344
2019/07/19 02:38,1,1,0,0.12,1.0,0,0.0,0.0,2,2,4,226,91,0,35,1,36.9,6.8,1.7,1.0,9.5,1.5,236
2019/07/19 02:40,1,1,0,0.12,1.5,0,0.0,0.0,2,2,4,222,91,0,35,1,37.1,6.7,1.7,1.0,9.5,1.6,216
2019/07/19 02:42,1,1,0,0.14,1.5,0,0.0,0.0,2,1,4,213,89,0,35,1,37.8,6.5,1.7,1.0,9.5,1.8,304
2019/07/19 02:44,1,1,0,0.15,1.6,0,0.0,0.0,2,2,4,213,89,0,35,1,37.8,6.5,1.7,1.0,9.5,1.8,304
2019/07/19 02:46,1,1,0,0.15,1.6,0,0.0,0.0,2,2,5,207,87,0,35,0,40.1,5.9,1.7,1.0,9.6,2.0,316
2019/07/19 02:48,1,1,0,0.16,2.0,0,0.0,0.0,2,2,4,203,85,0,35,0,40.8,5.8,1.7,1.0,9.6,2.1,327
2019/07/19 02:50,1,1,0,0.16,2.1,0,0.0,0.0,2,2,4,202,85,0,35,0,40.8,5.7,1.7,1.0,9.6,2.1,314
2019/07/19 02:52,1,1,0,0.16,2.1,0,0.0,0.0,3,2,4,195,82,0,36,0,42.0,5.3,1.7,1.0,9.7,2.4,323
2019/07/19 02:54,1,1,0,0.3,2.1,0,0.0,0.0,3,2,4,191,80,0,37,0,42.0,5.3,1.7,1.0,9.7,2.5,337
2019/07/19 02:56,1,1,0,0.3,2.0,0,0.03,0.0,2,2,4,188,79,0,38,0,41.9,5.3,1.7,1.0,9.7,2.6,307
2019/07/19 02:58,2,1,0,0.3,2.3,0,0.03,0.0,2,2,3,221,94,4,42,0,44.2,4.1,1.7,1.0,9.8,2.7,322
2019/07/19 03:00,1,1,0,0.24,2.3,0,0.03,0.0,2,2,4,220,93,4,42,0,44.5,4.1,1.7,1.0,9.8,2.8,312
2019/07/19 03:02,1,1,0,0.13,2.3,0,0.03,0.0,2,2,4,216,89,5,43,0,44.8,4.3,1.7,1.0,9.9,3.0,312
2019/07/19 03:04,1,1,0,0.13,2.1,0,0.03,0.0,2,2,3,214,88,5,43,0,45.4,4.2,1.7,1.1,9.9,3.1,271
2019/07/19 03:06,1,1,0,0.13,2.0,0,0.03,0.0,2,2,3,210,84,6,45,0,45.7,4.4,1.7,1.1,9.9,3.2,209
2019/07/19 03:08,1,1,0,0.2,1.9,0,0.03,0.0,2,2,4,207,80,7,46,0,46.5,4.6,1.7,1.1,9.9,3.4,247
2019/07/19 03:10,1,1,0,0.2,1.4,0,0.03,0.0,3,2,4,210,83,8,45,0,46.0,5.5,1.7,1.1,10.0,3.5,454
2019/07/19 03:12,1,1,0,0.2,1.8,0,0.03,0.0,3,2,2,204,74,7,48,0,47.1,5.0,1.7,1.1,10.0,3.8,261
2019/07/19 03:14,1,1,0,0.2,2.1,0,0.03,0.0,3,2,2,203,72,7,49,0,46.9,5.3,1.7,1.1,10.0,3.9,210
2019/07/19 03:16,1,1,0,0.16,2.1,0,0.03,0.0,2,2,3,202,70,7,49,0,47.6,5.2,1.7,1.1,10.1,4.1,221
2019/07/19 03:18,1,1,0,0.19,2.2,0,0.03,0.0,3,2,3,205,68,7,49,0,47.5,5.7,1.7,1.0,10.1,4.4,258
2019/07/19 03:20,1,1,0,0.19,2.3,0,0.03,0.0,3,2,3,205,67,7,50,0,47.8,5.6,1.7,1.0,10.1,4.4,267
2019/07/19 03:22,1,1,0,0.19,2.3,0,0.03,0.0,3,2,3,206,63,7,49,0,48.0,6.0,1.7,1.0,10.1,4.7,295
2019/07/19 03:24,1,1,0,0.19,2.3,0,0.03,0.0,2,2,4,205,61,6,50,0,48.6,6.0,1.7,1.0,10.1,4.9,263
2019/07/19 03:26,1,1,0,0.15,2.0,0,0.03,0.0,3,2,2,207,58,6,50,0,49.3,6.2,1.7,1.0,10.0,5.2,256
2019/07/19 03:28,1,1,0,0.19,2.0,1,0.04,0.0,3,2,3,207,55,5,50,0,50.5,6.2,1.7,1.0,10.0,5.4,208
2019/07/19 03:30,1,1,0,0.19,1.7,1,0.04,0.0,2,2,3,207,55,5,50,0,50.5,6.3,1.7,1.0,10.0,5.4,218
2019/07/19 03:32,1,1,0,0.19,1.8,2,0.14,0.0,3,2,3,221,57,4,44,0,48.1,7.4,1.7,1.0,9.9,6.0,449
2019/07/19 03:34,3,1,0,0.33,2.2,8,0.28,0.0,3,2,4,221,57,6,45,0,50.4,7.2,1.7,1.0,9.8,6.2,223
2019/07/19 03:36,3,1,0,0.33,2.2,8,0.28,0.0,2,2,4,227,60,6,42,0,48.7,7.6,1.7,1.0,9.8,6.5,337
2019/07/19 03:38,3,1,0,0.36,2.2,8,0.28,0.0,3,2,3,239,64,8,41,0,50.3,7.8,1.7,1.0,9.8,6.8,423
2019/07/19 03:40,4,2,0,0.41,1.6,8,0.28,0.0,5,2,3,244,66,9,41,0,50.3,7.9,2.2,1.0,9.8,6.9,443
2019/07/19 03:42,4,2,0,0.44,2.0,2,0.28,0.0,3,2,3,251,69,10,39,0,50.3,8.2,2.2,1.0,9.7,7.2,471
2019/07/19 03:44,5,2,0,0.44,2.0,8,0.28,0.0,4,2,3,287,74,18,38,0,52.4,8.7,2.2,1.0,9.7,7.7,411
2019/07/19 03:46,5,3,0,0.44,2.0,14,0.35,1.7,4,2,3,287,74,18,38,0,52.4,8.7,2.2,1.0,9.7,7.7,411
2019/07/19 03:48,6,3,0,0.35,2.0,14,0.51,0.0,3,2,4,314,81,24,39,0,54.4,8.7,2.2,1.0,9.6,7.8,299
2019/07/19 03:50,6,3,0,0.37,2.1,17,0.51,1.9,3,2,4,342,90,32,38,0,56.0,9.2,2.2,1.0,9.5,8.3,413
2019/07/19 03:52,9,4,0,0.49,2.4,17,0.51,0.0,3,2,4,344,91,32,38,0,56.1,9.2,2.2,1.0,9.5,8.3,420
2019/07/19 03:54,15,5,0,0.49,2.4,22,0.51,1.9,3,2,3,403,109,51,39,0,59.1,9.8,2.2,1.0,9.5,8.9,423
2019/07/19 03:56,13,6,0,0.49,2.4,22,0.51,0.0,3,2,3,509,123,82,22,0,62.2,4.9,2.2,1.0,10.4,9.3,295
2019/07/19 03:58,8,5,0,0.34,2.4,22,0.51,0.0,4,3,4,564,135,103,24,0,63.1,5.0,2.2,1.0,10.4,9.6,288
2019/07/19 04:00,11,5,0,0.41,2.4,22,0.51,0.0,6,4,5,623,148,129,28,0,64.3,5.1,2.2,1.0,10.4,9.9,261
2019/07/19 04:02,8,4,0,0.42,2.3,10,0.51,0.0,6,4,4,623,148,129,28,0,64.3,5.1,2.2,1.0,10.4,9.9,261
2019/07/19 04:04,7,4,0,0.42,2.3,6,0.51,0.0,6,4,6,694,165,154,33,0,65.9,5.3,2.2,1.0,10.4,10.3,275
2019/07/19 04:06,7,4,0,0.43,2.3,6,0.51,0.0,4,3,5,717,168,160,33,0,66.5,5.4,2.2,1.0,10.4,10.6,230
2019/07/19 04:08,9,4,0,0.45,2.0,6,0.51,0.0,4,3,3,745,174,167,35,0,67.4,5.5,2.2,1.0,10.4,10.9,202
2019/07/19 04:10,11,5,0,0.52,2.0,3,0.51,0.0,8,5,5,773,178,174,38,0,68.5,5.8,2.2,1.0,10.4,11.3,219
2019/07/19 04:12,4,3,0,0.52,2.0,3,0.51,0.0,8,5,5,773,178,174,38,0,68.5,5.8,2.2,1.0,10.4,11.3,219
2019/07/19 04:14,18,7,0,0.67,2.1,3,0.51,0.0,9,5,6,798,185,181,42,0,69.3,6.5,2.2,1.0,10.3,11.8,254
2019/07/19 04:16,18,7,0,0.67,2.2,5,0.51,0.0,9,7,8,798,183,182,42,0,69.4,6.8,2.2,1.0,10.3,12.0,216
2019/07/19 04:18,18,7,0,0.67,2.3,6,0.51,0.0,9,7,5,806,183,183,44,0,69.6,7.2,2.2,1.0,10.3,12.3,231
2019/07/19 04:20,15,7,0,0.62,2.3,6,0.46,0.0,9,7,6,824,194,188,47,0,69.9,7.6,2.2,1.0,10.3,12.7,210
2019/07/19 04:22,15,7,0,0.62,2.3,6,0.46,0.0,8,5,6,825,194,190,49,0,69.9,7.7,2.2,1.0,10.3,13.1,230
2019/07/19 04:24,15,6,0,0.61,2.2,6,0.46,0.0,8,5,5,840,206,194,51,0,70.0,7.7,2.2,1.0,10.3,13.3,242
2019/07/19 04:26,13,6,0,0.59,2.2,6,0.26,0.0,8,5,5,840,206,194,53,0,69.9,7.8,2.2,1.0,10.3,13.5,233
2019/07/19 04:28,13,6,0,0.57,2.0,6,0.22,0.0,7,5,6,862,220,201,57,0,69.6,7.7,2.2,1.0,10.3,13.9,258
2019/07/19 04:30,13,6,0,0.57,2.0,6,0.22,0.0,7,6,6,909,244,209,65,0,69.3,7.3,2.2,1.0,10.4,14.5,229
2019/07/19 04:32,9,5,0,0.48,2.0,4,0.22,0.0,7,6,6,909,244,209,65,0,69.3,7.3,2.2,1.0,10.4,14.5,229
2019/07/19 04:34,7,5,0,0.44,1.7,4,0.2,0.0,7,6,4,958,275,221,72,0,68.9,6.6,2.2,1.0,10.4,14.8,204
2019/07/19 04:36,10,5,0,0.5,1.9,6,0.2,0.0,7,6,4,911,174,217,62,0,68.1,7.2,2.2,1.0,10.0,16.1,572
2019/07/19 04:38,13,6,0,0.58,1.9,6,0.2,0.0,5,4,4,1030,301,235,82,0,68.4,5.9,2.2,1.0,10.4,15.5,220
2019/07/19 04:40,14,6,0,0.58,1.9,6,0.2,0.0,5,4,4,1001,248,232,78,0,68.2,6.3,2.2,1.0,10.0,16.3,435
2019/07/19 04:42,14,6,0,0.58,1.9,6,0.2,0.0,6,4,4,1001,248,232,78,0,68.2,6.3,2.2,1.0,10.0,16.3,435
2019/07/19 04:44,5,3,0,0.54,1.9,3,0.2,0.0,7,6,6,1135,332,254,90,0,68.2,5.5,2.2,1.0,10.1,16.5,218
2019/07/19 04:46,12,6,0,0.54,1.9,4,0.2,0.0,6,6,6,1172,333,262,91,0,68.2,5.5,2.2,1.0,10.0,16.9,205
2019/07/19 04:48,10,5,0,0.49,1.8,4,0.2,0.0,7,6,6,1219,326,271,90,1,68.3,5.5,2.2,1.0,9.9,17.3,202
2019/07/19 04:50,12,6,0,0.53,1.9,6,0.19,0.0,7,6,6,1253,319,280,89,2,68.4,5.5,2.2,1.0,9.9,17.6,203
2019/07/19 04:52,12,6,0,0.53,1.9,7,0.22,0.0,7,6,5,1252,319,280,89,2,68.4,5.5,2.2,1.0,9.9,17.6,202
2019/07/19 04:54,14,7,0,0.57,1.9,9,0.22,0.0,7,6,4,1350,341,303,89,5,68.4,5.2,2.2,1.0,9.9,17.9,216
2019/07/19 04:56,15,7,0,0.57,1.7,9,0.22,0.0,7,5,4,1382,318,307,86,5,68.7,5.2,2.2,1.0,9.8,18.3,212
2019/07/19 04:58,12,6,0,0.57,1.6,9,0.22,0.0,5,3,2,1133,88,186,72,0,66.3,2.9,2.2,1.0,10.7,18.6,236
2019/07/19 05:00,18,9,0,0.69,2.0,13,0.4,3.5,4,3,3,1131,91,186,72,0,66.2,2.9,2.2,1.0,10.7,19.0,260
2019/07/19 05:02,18,9,0,0.69,2.0,13,0.4,0.0,4,3,2,1115,86,186,72,0,66.1,3.0,2.2,1.0,10.7,19.1,219
2019/07/19 05:04,21,11,0,0.69,2.0,20,0.5,2.8,4,3,3,1086,83,180,72,0,65.8,3.0,2.2,1.0,10.7,19.6,223
2019/07/19 05:06,32,13,0,0.83,2.0,21,0.5,0.1,6,4,4,1061,86,169,70,0,65.6,3.0,2.2,1.0,10.6,19.9,261
2019/07/19 05:08,35,15,0,0.85,2.0,23,0.53,0.6,7,5,5,998,84,146,66,0,65.3,3.2,2.2,1.0,10.6,20.4,246
2019/07/19 05:10,64,26,0,1.0,2.0,38,0.75,3.5,7,5,5,923,77,117,62,0,65.0,3.3,2.2,1.0,10.5,21.0,205
2019/07/19 05:12,71,25,0,1.11,2.2,38,0.75,0.0,10,8,8,929,81,124,63,0,65.2,3.3,2.2,1.0,10.5,21.1,261
2019/07/19 05:14,79,33,1,1.26,2.2,38,0.79,0.3,11,10,10,860,81,115,61,4,65.5,3.3,2.2,1.0,10.5,21.7,260
2019/07/19 05:16,79,33,1,1.26,2.2,38,0.79,0.7,11,10,10,826,82,120,60,5,65.8,3.3,2.2,1.0,10.4,21.9,251
2019/07/19 05:18,81,33,1,1.39,2.5,34,0.79,0.0,11,10,4,743,81,113,58,10,66.0,3.3,2.2,1.0,10.4,22.5,274
2019/07/19 05:20,81,33,1,1.39,2.5,34,0.79,0.0,11,10,3,712,84,115,57,11,66.1,3.2,2.2,1.0,10.4,22.8,252
2019/07/19 05:22,81,34,0,1.39,2.5,34,0.79,0.0,4,4,4,685,86,119,58,12,66.0,3.2,2.2,1.0,10.4,23.0,296
2019/07/19 05:24,6,3,0,1.26,2.5,35,0.79,2.8,5,4,4,644,91,120,58,18,65.6,3.0,2.2,1.0,10.4,23.6,322
2019/07/19 05:26,6,3,0,1.26,2.5,35,0.79,0.0,7,4,4,604,90,106,56,20,64.6,2.7,2.2,1.0,10.5,24.2,274
2019/07/19 05:28,6,3,0,1.52,2.6,35,0.79,1.0,7,5,5,598,95,103,58,24,63.8,2.6,2.2,1.0,10.6,24.7,213
2019/07/19 05:30,85,33,0,1.52,3.5,35,0.79,0.0,7,5,3,594,96,100,59,26,63.6,2.5,2.2,1.0,10.6,24.8,210
2019/07/19 05:32,5,3,0,1.68,3.5,32,0.79,0.0,7,5,3,586,99,94,60,29,63.5,2.5,2.2,1.0,10.6,25.2,232
2019/07/19 05:34,5,3,0,1.68,3.5,32,0.79,0.3,4,3,0,556,97,82,59,30,63.5,2.4,2.2,1.0,10.7,25.8,201
2019/07/19 05:36,84,34,0,1.68,3.3,29,0.79,0.1,4,3,0,551,98,83,60,33,63.5,2.4,2.2,1.0,10.7,26.0,254
2019/07/19 05:38,89,34,0,1.61,2.6,47,0.79,4.2,0,0,0,538,97,83,58,33,63.7,2.4,2.2,1.0,10.7,26.0,245
2019/07/19 05:40,94,34,0,2.43,3.1,47,0.79,0.0,0,0,0,559,102,86,63,37,63.7,2.4,2.2,1.0,10.7,25.8,211
2019/07/19 05:42,94,34,0,2.43,3.1,47,0.79,0.7,0,0,0,555,103,91,58,38,64.7,2.7,2.2,1.1,10.8,25.3,236
2019/07/19 05:44,94,34,0,2.43,3.1,47,0.79,0.0,0,0,0,568,106,95,58,40,65.1,2.7,2.2,1.1,10.8,25.0,212
2019/07/19 05:46,89,34,0,2.15,2.6,26,0.78,0.2,0,0,0,595,110,100,55,41,65.6,2.9,2.2,1.1,10.8,24.5,217
2019/07/19 05:48,89,34,0,2.15,2.6,26,0.78,0.0,0,0,0,666,128,112,62,52,66.3,3.0,2.2,1.1,10.8,24.2,203
2019/07/19 05:50,86,34,0,2.15,2.8,19,0.77,0.3,2,0,0,746,148,129,56,52,66.8,3.2,2.2,1.1,10.8,23.7,274
2019/07/19 05:52,84,34,0,1.88,2.8,19,0.77,0.0,3,2,2,802,167,139,60,57,67.0,3.3,2.2,1.1,10.8,23.5,241
2019/07/19 05:54,81,34,0,1.88,2.8,14,0.77,0.7,4,3,3,902,202,158,56,60,67.4,3.4,2.2,1.1,10.8,23.1,253
2019/07/19 05:56,88,34,0,2.03,3.5,22,0.77,1.8,6,4,4,869,181,99,17,0,68.1,1.3,2.2,1.1,10.8,23.2,282
2019/07/19 05:58,88,34,0,2.03,3.5,22,0.77,0.0,6,4,4,1009,231,131,23,0,68.4,1.3,2.2,1.2,10.8,22.8,252
2019/07/19 06:00,91,34,0,2.04,3.6,30,0.77,1.6,6,4,4,1087,262,149,26,0,68.5,1.4,2.2,1.2,10.8,22.6,286
2019/07/19 06:02,91,34,0,3.48,3.6,30,0.77,0.0,6,4,4,1219,336,182,31,3,68.5,1.5,2.2,1.2,10.8,22.1,271
2019/07/19 06:04,91,34,0,3.48,3.6,30,0.77,0.0,5,4,4,1312,393,207,34,4,68.7,1.5,2.2,1.2,10.8,21.8,219
2019/07/19 06:06,91,34,0,3.48,3.2,30,0.77,0.7,7,4,4,1416,486,238,34,10,68.7,1.7,2.2,1.2,10.8,21.4,240
2019/07/19 06:08,85,34,0,2.88,3.2,19,0.77,0.0,7,4,3,1479,569,258,33,15,68.8,1.8,0,1.2,10.8,21.1,229
2019/07/19 06:10,85,34,0,2.62,2.7,20,0.72,1.1,7,4,3,1540,646,278,31,18,68.8,2.0,0,1.2,10.8,20.8,230
2019/07/19 06:12,85,34,0,2.3,2.7,20,0.72,0.0,4,3,3,1573,692,289,30,20,68.8,2.1,0,1.2,10.8,20.5,209
2019/07/19 06:14,91,33,0,1.91,2.6,39,0.99,3.8,5,5,5,1655,800,314,28,24,68.8,2.3,0,1.3,10.8,20.2,217
2019/07/19 06:16,92,33,0,2.33,2.6,39,0.99,0.0,6,5,5,1694,855,326,27,27,68.9,2.5,0,1.3,10.8,19.9,241
2019/07/19 06:18,92,33,0,2.33,3.0,39,0.99,0.0,6,5,5,1769,953,345,24,32,68.9,2.7,0,1.3,10.7,19.7,245
2019/07/19 06:20,93,33,1,2.56,3.0,39,0.99,0.0,7,5,5,1825,1010,362,22,37,68.9,2.9,0,1.3,10.7,19.4,273
2019/07/19 06:22,88,33,1,2.56,3.0,22,0.99,0.0,6,5,5,1956,1197,396,20,48,69.0,3.5,0,1.3,10.7,18.9,281
2019/07/19 06:24,90,33,1,2.56,2.8,25,0.99,0.7,7,6,6,2024,1289,411,18,52,69.0,3.8,0,1.3,10.7,18.7,290
2019/07/19 06:26,90,33,1,2.35,2.8,25,0.99,0.0,7,6,6,2062,1322,424,17,54,69.2,3.9,0,1.3,10.7,18.5,319
2019/07/19 06:28,90,33,1,2.06,2.8,25,0.99,0.6,7,6,6,2085,1332,431,16,55,69.3,4.0,0,1.3,10.7,18.3,312
2019/07/19 06:30,92,33,1,1.75,2.3,25,0.99,0.0,7,6,5,2133,1351,444,14,50,69.6,4.2,Storm,1.3,10.7,18.1,329
2019/07/19 06:32,92,33,1,1.49,2.2,35,0.99,3.1,7,6,5,2039,995,419,11,42,69.1,5.0,Storm,1.3,10.8,17.4,778
2019/07/19 06:34,66,34,0,0.84,2.0,35,0.99,0.0,6,5,4,2111,1059,445,11,33,69.0,5.2,Storm,1.3,10.8,17.1,792
2019/07/19 06:36,71,25,0,0.81,2.1,35,0.99,0.0,6,5,4,2139,1090,455,11,31,69.0,5.4,Storm,1.3,10.8,16.9,776
2019/07/19 06:38,74,34,0,0.89,2.1,35,0.99,0.9,6,4,3,2196,1201,477,11,33,69.2,5.6,Storm,1.3,10.8,16.5,762
2019/07/19 06:40,89,34,0,1.11,2.1,47,0.99,1.5,4,3,4,2216,1226,485,11,29,69.1,5.7,Storm,1.3,10.8,16.3,724
2019/07/19 06:42,91,34,0,1.11,2.1,47,0.99,0.0,4,3,4,2256,1312,500,11,28,69.1,5.9,Storm,1.3,10.8,16.1,776
2019/07/19 06:44,91,34,0,1.11,1.9,47,0.99,0.1,4,3,4,2285,1362,512,11,30,68.7,6.1,Storm,1.3,10.8,15.8,697
2019/07/19 06:46,93,34,0,1.14,2.1,49,0.51,1.9,5,3,4,2394,1627,558,12,29,67.1,6.6,Storm,1.3,10.8,15.0,829
2019/07/19 06:48,96,34,0,1.14,2.1,80,0.73,1.8,5,3,4,2394,1627,558,12,29,67.1,6.6,Storm,1.3,10.8,15.0,831
2019/07/19 06:50,98,34,0,1.58,2.1,80,0.73,0.0,5,3,4,2493,1827,584,12,44,67.3,7.0,Storm,1.3,10.8,14.5,960
2019/07/19 06:52,98,33,0,1.58,2.2,80,0.73,0.2,5,3,3,2554,1903,594,11,53,67.6,6.9,Storm,1.4,10.8,14.6,840
2019/07/19 06:54,98,33,0,1.58,2.2,80,0.73,0.7,6,3,4,2581,1844,584,10,9,65.5,7.4,Storm,1.3,10.8,14.6,840
2019/07/19 06:56,98,40,0,1.37,2.6,74,0.73,0.0,7,4,4,2649,1970,604,11,14,65.4,8.1,Storm,1.3,10.8,13.9,949
2019/07/19 06:58,98,40,0,1.59,2.6,86,0.73,1.2,7,4,4,2679,2033,609,11,16,65.3,8.4,Storm,1.4,10.8,13.6,929
2019/07/19 07:00,99,58,1,1.97,2.6,86,0.73,0.0,9,5,6,2699,2092,614,12,20,65.2,8.6,Storm,1.4,10.8,13.4,1009
2019/07/19 07:02,99,65,1,1.97,2.6,86,0.73,1.1,9,5,6,2722,2122,616,11,21,65.2,8.7,Storm,1.4,10.8,13.3,954
2019/07/19 07:04,99,71,1,1.97,2.8,86,0.73,0.0,10,6,6,2772,2218,625,11,27,65.2,9.0,Storm,1.4,10.8,13.0,829
2019/07/19 07:06,99,81,2,1.81,3.5,81,0.73,0.0,10,7,7,2765,2206,625,12,27,65.1,9.1,Storm,1.4,10.8,12.8,835
2019/07/19 07:08,99,82,2,1.73,3.5,96,0.73,1.8,10,7,7,2699,2180,629,12,31,64.6,9.6,Storm,1.4,10.8,12.4,1003
2019/07/19 07:10,99,82,4,1.85,3.5,96,0.73,0.0,11,7,8,2723,2204,633,12,33,64.4,9.8,Storm,1.4,10.9,12.2,1009
2019/07/19 07:12,99,83,9,1.85,3.4,96,0.73,0.0,12,9,9,2739,2223,636,12,34,64.1,10.0,Storm,1.4,10.9,11.9,1053
2019/07/19 07:14,99,87,8,1.85,3.4,102,0.73,1.7,12,9,8,2740,2231,638,12,35,64.0,10.0,Storm,1.4,10.9,11.9,1077
2019/07/19 07:16,99,87,8,1.9,3.5,102,0.73,0.0,10,9,9,2760,2285,646,13,38,63.8,10.3,Storm,1.4,10.9,11.6,1078
2019/07/19 07:18,99,87,5,1.9,3.5,102,0.73,0.0,10,9,8,2749,2283,649,13,39,63.7,10.4,Storm,1.4,10.9,11.5,1089
2019/07/19 07:20,99,87,7,1.9,3.5,102,0.6,0.4,10,9,8,2761,2311,658,13,41,63.5,10.6,Storm,1.4,10.9,11.3,1150
2019/07/19 07:22,99,85,4,1.91,3.4,117,0.6,1.8,10,8,8,2781,2340,669,14,45,63.3,10.8,Storm,1.4,10.9,11.1,1083
2019/07/19 07:24,99,83,8,1.91,3.3,117,0.6,0.0,13,8,8,2813,2378,682,14,50,63.0,11.0,Storm,1.4,10.9,10.9,1079
2019/07/19 07:26,99,83,8,1.91,3.3,117,0.6,0.0,10,8,8,2831,2400,691,14,53,62.9,11.2,Storm,1.4,10.9,10.8,1068
2019/07/19 07:28,99,85,8,1.86,3.3,136,0.6,2.4,10,8,8,2840,2411,699,14,56,62.6,11.4,Storm,1.5,10.9,10.5,1084
2019/07/19 07:30,99,85,8,1.77,3.3,136,0.55,0.0,14,8,8,2843,2416,704,14,58,62.4,11.6,Storm,1.5,10.9,10.3,1089
2019/07/19 07:32,99,85,11,1.81,3.3,136,0.55,0.0,12,8,9,2837,2411,706,14,59,62.4,11.7,Storm,1.5,10.9,10.2,1157
2019/07/19 07:34,99,85,26,1.81,3.2,136,0.59,0.9,15,9,11,2852,2421,712,15,63,62.3,11.9,Storm,1.5,10.9,9.9,1157
2019/07/19 07:36,99,89,26,1.84,3.2,116,0.59,0.0,14,9,11,2851,2418,712,15,63,62.4,12.1,Storm,1.5,10.9,9.8,1181
2019/07/19 07:38,99,89,26,2.07,3.1,116,0.59,0.0,13,9,10,2855,2421,716,15,65,62.3,12.3,Storm,1.5,11.0,9.6,1169
2019/07/19 07:40,99,89,25,2.07,3.3,130,0.62,1.3,13,9,10,2867,2425,718,15,67,62.3,12.4,Storm,1.5,11.0,9.5,1159
2019/07/19 07:42,99,89,22,2.07,3.3,130,0.62,0.0,13,9,8,2892,2434,724,15,71,61.9,12.7,Storm,1.5,11.0,9.2,1203
2019/07/19 07:44,99,89,22,1.92,3.3,130,0.62,0.0,14,9,8,2894,2433,726,16,72,61.7,12.8,Storm,1.5,11.0,9.1,1208
2019/07/19 07:46,99,89,14,1.74,3.3,139,0.72,2.2,14,8,8,2940,2450,736,17,77,60.9,13.3,Storm,1.6,11.0,8.7,1134
2019/07/19 07:48,99,85,12,1.74,3.1,139,0.72,0.0,13,7,6,2961,2458,740,17,80,60.8,13.4,Storm,1.6,11.0,8.6,1144
2019/07/19 07:50,98,83,10,1.48,2.9,139,0.72,0.2,13,7,6,2944,2441,740,18,79,60.6,13.7,Storm,1.6,11.1,8.4,1113
2019/07/19 07:52,97,82,7,1.27,2.7,139,0.72,0.0,7,6,6,2780,2376,717,10,85,60.3,15.4,Storm,1.7,11.1,8.3,1132
2019/07/19 07:54,97,85,3,1.33,3.0,153,0.72,1.9,7,6,6,2769,2364,714,11,84,60.3,15.5,Storm,1.7,11.1,8.1,1144
2019/07/19 07:56,97,83,2,1.34,3.0,153,0.72,0.0,7,6,5,2762,2355,713,11,83,60.2,15.5,Storm,1.7,11.1,8.1,1192
2019/07/19 07:58,93,76,1,1.13,2.5,96,0.49,0.1,8,5,5,2743,2336,708,11,80,60.2,15.6,Storm,1.7,11.1,7.9,1160
2019/07/19 08:00,92,76,1,1.04,2.5,106,0.44,0.2,7,5,5,2725,2319,703,11,78,60.2,15.6,Storm,1.7,11.2,7.8,1224
2019/07/19 08:02,83,76,1,0.96,2.4,147,0.56,0.4,8,5,5,2700,2298,696,11,76,60.1,15.7,0,1.7,11.2,7.6,1214
2019/07/19 08:04,79,76,1,1.03,2.7,90,0.3,0.0,7,5,5,2678,2277,687,11,76,60.0,15.8,0,1.7,11.2,7.5,1247
2019/07/19 08:06,65,71,1,0.85,2.2,83,0.29,0.0,6,5,5,2657,2258,677,11,74,59.6,15.8,0,1.7,11.2,7.4,1239
2019/07/19 08:08,73,65,1,0.91,2.3,79,0.39,0.0,7,4,4,2633,2238,665,11,73,59.4,15.8,0,1.7,11.2,7.3,1277
2019/07/19 08:10,69,65,1,0.78,2.1,107,0.56,0.1,7,4,4,2615,2222,656,12,73,59.3,15.8,0,1.7,11.2,7.2,1279
2019/07/19 08:12,57,63,1,0.7,2.0,102,0.42,0.0,7,4,4,2592,2202,643,12,73,59.1,15.9,0,1.7,11.2,7.0,1271
2019/07/19 08:14,50,53,1,0.71,1.9,73,0.36,0.0,8,4,4,2581,2194,639,12,73,59.1,15.9,0,1.7,11.2,6.9,1298
2019/07/19 08:16,47,53,1,0.71,2.0,66,0.31,0.0,8,4,4,2563,2178,625,13,73,59.0,15.9,0,1.7,11.2,6.8,1348
2019/07/19 08:18,38,46,1,0.69,2.0,61,0.37,0.0,8,4,4,2537,2160,613,13,71,58.9,15.9,0,1.7,11.2,6.8,1448
2019/07/19 08:20,64,40,1,0.94,2.4,68,0.36,0.0,5,3,3,2495,2139,606,14,71,58.8,15.9,0,1.7,11.2,6.7,1518
2019/07/19 08:22,40,27,1,0.73,2.0,54,0.44,0.0,8,4,3,2465,2121,603,14,70,58.8,15.9,0,1.7,11.2,6.7,1490
2019/07/19 08:24,36,61,1,0.68,2.4,46,0.31,0.0,8,5,4,2394,2073,602,15,69,59.1,15.9,0,1.6,11.3,6.5,1429
2019/07/19 08:26,30,22,0,0.61,2.3,41,0.32,0.0,6,3,4,2350,2041,603,16,68,59.5,15.9,0,1.6,11.3,6.4,1348
2019/07/19 08:28,29,22,1,0.56,1.9,55,0.39,0.0,6,4,4,2319,2009,605,17,68,60.0,15.9,0,1.6,11.3,6.2,1219
2019/07/19 08:30,33,46,1,0.65,2.0,51,0.34,0.0,5,4,4,2294,1979,606,18,67,60.2,15.9,0,1.6,11.3,6.1,1187
2019/07/19 08:32,28,40,1,0.55,2.2,46,0.26,0.0,5,4,4,2295,1905,614,20,65,60.9,15.9,0,1.6,11.4,5.8,1051
2019/07/19 08:34,55,63,1,0.69,2.4,70,0.37,0.0,5,4,4,2313,1875,617,21,64,61.1,15.8,0,1.6,11.4,5.8,1067
2019/07/19 08:36,37,27,1,0.64,1.9,44,0.28,0.0,5,4,4,2348,1880,622,23,64,61.4,15.7,0,1.6,11.4,5.6,1027
2019/07/19 08:38,39,27,1,0.62,1.8,53,0.34,0.0,6,4,4,2381,1843,623,25,62,61.5,15.6,0,1.6,11.4,5.6,1033
2019/07/19 08:40,49,46,1,0.72,2.3,50,0.45,0.0,6,4,4,2401,1762,623,29,59,61.7,15.3,0,1.6,11.4,5.7,944
2019/07/19 08:42,30,48,1,0.53,2.6,54,0.35,0.0,6,4,4,2443,1734,625,32,57,61.8,15.2,0,1.6,11.4,5.7,966
2019/07/19 08:44,31,22,0,0.44,1.6,73,0.44,0.0,5,4,4,2515,1669,627,37,54,62.1,15.0,0,1.6,11.5,5.6,898
2019/07/19 08:46,21,13,0,0.44,1.7,39,0.17,0.0,5,4,3,2623,1604,629,43,49,62.3,14.7,0,1.5,11.5,5.6,897
2019/07/19 08:48,43,27,0,0.55,2.0,67,0.39,0.0,6,4,3,2712,1596,631,47,46,62.4,14.5,0,1.5,11.5,5.7,892
2019/07/19 08:50,33,22,0,0.54,1.8,50,0.4,0.0,5,4,3,2830,1580,635,52,42,62.5,14.3,0,1.5,11.5,5.7,872
2019/07/19 08:52,57,53,0,0.63,2.1,76,0.56,0.0,5,4,4,2933,1567,642,55,40,62.8,14.2,0,1.5,11.5,5.7,964
2019/07/19 08:54,50,27,0,0.63,2.2,50,0.37,0.0,5,3,3,3047,1526,652,58,37,63.0,14.0,0,1.5,11.5,5.6,991
2019/07/19 08:56,31,13,0,0.47,2.3,50,0.36,0.0,4,3,3,3028,1391,631,57,71,62.3,13.7,0,1.5,11.5,5.6,976
2019/07/19 08:58,40,15,0,0.56,2.3,45,0.25,0.0,8,3,3,3132,1372,640,64,69,62.3,13.5,0,1.5,11.6,5.6,1013
2019/07/19 09:00,26,13,0,0.44,2.1,42,0.3,0.0,5,3,3,3262,1344,656,74,67,62.3,13.4,0,1.5,11.6,5.6,1000
2019/07/19 09:02,43,15,0,0.6,2.2,46,0.34,0.0,5,3,3,3376,1318,675,81,66,62.2,13.2,0,1.5,11.6,5.6,960
2019/07/19 09:04,53,19,0,0.67,2.4,50,0.38,0.0,5,3,3,3455,1312,694,89,65,62.2,13.2,0,1.5,11.6,5.5,998
2019/07/19 09:06,67,53,0,0.65,2.6,80,0.43,0.0,7,4,4,3539,1290,720,98,64,62.1,13.1,0,1.4,11.6,5.4,915
2019/07/19 09:08,85,65,0,0.89,2.8,76,0.39,0.0,5,4,4,3587,1282,742,105,62,62.1,13.1,0,1.4,11.6,5.4,906
2019/07/19 09:10,92,58,0,0.91,2.1,114,0.54,0.0,6,4,4,3634,1281,764,111,62,62.1,13.0,0,1.4,11.6,5.5,871
2019/07/19 09:12,97,58,0,1.39,2.6,83,0.47,0.0,5,4,4,3685,1287,787,118,59,62.0,13.0,0,1.4,11.6,5.6,954
2019/07/19 09:14,97,58,0,1.38,2.6,81,0.42,0.0,9,4,4,3733,1297,804,123,56,62.0,13.0,0,1.4,11.7,5.6,928
2019/07/19 09:16,94,40,0,1.06,2.3,89,0.39,0.0,9,3,4,3784,1326,823,125,54,62.0,13.0,0,1.4,11.7,5.8,999
2019/07/19 09:18,99,58,0,1.48,2.9,150,0.58,0.0,6,3,4,3833,1339,837,128,52,62.0,13.0,0,1.4,11.7,5.9,1002
2019/07/19 09:20,97,58,0,1.39,3.1,88,0.34,0.0,6,3,4,3896,1361,856,131,50,62.0,13.0,0,1.4,11.7,5.8,957